Location: Thompson
(55.7500°N, 97.8670°W)
Time: 22:42:19
(UTC-06:00)

Daily predictions for brighter satellites

Satellite Brightness Start Highest point End
(mag) Time Altitude Azimuth Time Altitude Azimuth Time Altitude Azimuth
CZ-4C R/B 2.9 17:11:49 10° W 17:17:30 54° NNW 17:24:06 10° NE
NOSS 3-2 (A) 3.8 17:11:44 10° SSW 17:17:51 64° SE 17:24:41 10° NE
Cosmos 1125 Rocket 3.9 17:13:54 10° NNW 17:18:52 41° NE 17:23:47 10° ESE
Cosmos 990 Rocket 4.0 17:14:47 10° NNW 17:20:05 82° ENE 17:25:22 10° SSE
EO 1 Del DPAF 3.3 17:17:24 10° NNE 17:21:17 68° ESE 17:25:07 10° S
Cosmos 1674 4.1 17:18:52 10° SE 17:21:46 21° E 17:24:43 10° NE
NOSS 3-2 (C) 3.9 17:15:50 10° SSW 17:21:54 57° SE 17:28:38 10° NE
CSL-04 Rocket 4.3 17:16:30 10° S 17:21:57 65° WSW 17:27:22 10° NNW
SPOT 3 Rocket 3.6 17:18:03 10° SE 17:23:07 62° ENE 17:28:15 10° NNW
MSX 3.9 17:17:59 10° SE 17:23:34 57° ENE 17:29:11 10° N
AQUARIUS 4.2 17:19:20 10° SSE 17:23:47 62° ENE 17:28:15 10° N
Cosmos 1076 Rocket 4.0 17:19:57 10° SSE 17:23:57 41° E 17:28:00 10° NNE
Cosmos 1484 Rocket 3.5 17:22:49 10° SE 17:26:22 32° ENE 17:29:58 10° N
COSMOS 2428 3.8 17:22:04 10° SSE 17:26:40 26° ESE 17:31:15 10° NE
Cosmos 2369 Rocket 3.7 17:22:50 10° NNW 17:26:50 19° NNE 17:30:47 10° ENE
MTI 3.8 17:24:12 10° NNE 17:27:28 72° ESE 17:30:43 10° S
Cosmos 2221 3.0 17:24:58 10° NNW 17:29:14 66° W 17:33:27 10° S
Orbus 7S? 3.1 17:26:39 10° W 17:29:27 75° N 17:34:19 10° E
Cosmos 1300 3.8 17:26:46 10° N 17:29:55 23° ENE 17:33:02 10° ESE
Cosmos 2237 Rocket 4.0 17:29:57 10° ESE 17:30:58 10° E 17:32:00 10° E
Cosmos 1726 3.2 17:28:56 10° N 17:32:03 24° ENE 17:35:11 10° ESE
SJ-12 3.9 17:28:41 10° SSE 17:32:50 81° ENE 17:36:59 10° NNW
Cosmos 2034 Rocket 4.1 17:27:13 10° NNW 17:33:38 89° E 17:40:01 10° S
Cosmos 2297 4.3 17:30:19 10° NNW 17:35:35 37° NE 17:40:52 10° ESE
COSMOS 2455 3.3 17:30:19 10° WSW 17:36:18 61° NW 17:42:19 10° NE
ALOS 3.8 17:33:41 10° E 17:36:33 16° NE 17:39:25 10° NNE
Cosmos 1378 3.5 17:32:51 10° SSW 17:36:35 66° WNW 17:40:19 10° N
Lacrosse 5 rocket 1.2 17:34:23 10° WNW 17:38:04 77° SSW 17:41:55 10° ESE
IDEFIX/ARIANE 42P 2.6 17:33:59 10° SSE 17:39:13 89° WSW 17:44:31 10° NNW
SL-16 R/B 3.9 17:39:54 10° N 17:45:34 37° NW 17:51:13 10° WSW
Cosmos 1707 4.3 17:42:01 10° SW 17:45:35 34° WNW 17:49:10 10° N
Cosmos 1937 Rocket 4.3 17:40:34 10° NNW 17:45:39 57° WSW 17:50:44 10° S
MOS 1 4.4 17:41:01 10° SSE 17:46:42 88° WSW 17:52:25 10° NNW
CZ-4 R/B 1.6 17:43:30 10° S 17:47:23 72° WSW 17:51:20 10° NNW
Cosmos 468 Rocket 4.1 17:45:19 10° S 17:50:22 55° ESE 17:55:24 10° NE
Lacrosse 4 Rocket 2.7 17:49:03 10° NNW 17:52:23 23° NNE 17:54:43 15° ENE
CENTAUR R/B 3.3 17:47:11 10° S 17:52:51 36° ESE 17:58:26 13° ENE
Cosmos 2322 3.8 17:47:35 10° SSW 17:53:10 61° ESE 17:58:49 10° NE
Meteor 2-2 Rocket 4.2 17:47:54 10° NNW 17:53:35 72° ENE 17:59:12 10° SSE
FREGAT/IRIS 4.2 17:52:41 13° E 17:54:08 17° ENE 17:56:13 10° NNE
Cosmos 1844 Rocket 3.1 17:48:56 10° NW 17:54:36 69° WSW 18:00:13 10° SSE
Meteor 1-24 Rocket 4.2 17:48:46 10° SSW 17:54:47 74° WNW 18:00:52 10° NNE
In-Cosmos 22 4.1 17:50:23 10° S 17:55:46 78° ESE 18:01:20 10° NNE
Cosmos 1766 Rocket 3.6 17:51:54 10° S 17:56:18 64° E 18:00:42 10° NNE
Cosmos 2208 Rocket 4.3 17:52:04 10° SW 17:57:17 68° WNW 18:02:36 10° NNE
SMAP 3.4 17:52:39 10° S 17:57:18 73° WSW 18:02:00 10° NNW
COSMO-SKYMED 1 3.6 17:54:51 10° NE 17:58:33 26° E 18:02:12 10° SSE
CZ-3A R/B 3.2 17:51:31 10° WNW 17:58:42 70° SSW 18:03:15 10° ESE
Resurs 01 Rocket 2.9 17:55:32 10° ESE 17:58:50 21° NE 18:02:07 10° N
SL-16 R/B 2.6 17:53:55 10° SW 17:59:33 63° NW 18:05:13 10° NNE
Lacrosse 5 2.0 17:55:46 10° SW 18:00:47 65° SSE 18:04:47 16° ENE
Cosmos 2228 Rocket 3.1 17:59:41 10° NNW 18:04:08 89° W 18:08:33 10° S
YAOGAN 1 3.0 18:03:16 10° S 18:07:34 65° WSW 18:11:55 10° NNW
Cosmos 2279 Rocket 4.2 18:01:45 10° N 18:07:45 48° ENE 18:13:44 10° SE
CZ-2C R/B 3.2 18:03:06 10° S 18:07:59 55° W 18:12:44 10° NNW
USA 116 3.2 18:08:32 10° NNE 18:11:58 69° ESE 18:15:08 10° S
Cosmos 1900 4.4 18:07:58 10° NW 18:12:50 58° NE 18:17:45 10° ESE
Cosmos 389 Rocket 4.1 18:10:01 10° NNW 18:13:26 40° W 18:16:49 10° SSW
Cosmos 2360 Rocket 2.2 18:10:14 10° SSW 18:15:52 88° ESE 18:21:14 12° NE
Cosmos 1408 Rocket 3.6 18:12:36 10° SSW 18:17:03 84° WNW 18:21:31 10° N
Cosmos 1980 Rocket 3.6 18:12:10 10° W 18:17:05 30° NNW 18:22:01 10° NNE
Cosmos 1174 3.6 18:14:07 10° WSW 18:17:08 58° NW 18:19:19 19° NE
SJ-6B 3.4 18:13:46 10° SE 18:17:35 39° ENE 18:21:28 10° N
Meteor 1-21 Rocket 4.3 18:13:44 10° S 18:19:38 79° ESE 18:25:29 10° NNE
Cosmos 2058 3.9 18:21:05 10° SE 18:24:29 25° E 18:24:56 25° ENE
FENGYUN 3A 4.1 18:24:44 10° SE 18:29:40 39° ENE 18:34:39 10° N
Cosmos 2333 Rocket 2.9 18:24:52 10° S 18:29:50 33° ESE 18:32:21 23° ENE
Cosmos 1697 Rocket 4.4 18:25:54 10° WNW 18:30:21 23° NNW 18:34:46 10° NNE
Cosmos 1763 Rocket 3.5 18:25:36 10° SSW 18:30:44 63° ESE 18:34:51 16° NE
Meteor 2-10 3.9 18:25:44 10° N 18:30:47 65° ENE 18:35:53 10° SSE
Cosmos 372 Rocket 3.9 18:25:55 10° NNW 18:31:04 87° ENE 18:36:11 10° SSE
Helios 1A 4.2 18:31:33 23° NE 18:31:33 23° NE 18:34:29 10° N
Cosmos 2346 Rocket 4.4 18:26:06 10° S 18:32:18 68° E 18:38:30 10° NNE
ATLAS 5 CENTAUR R/B 2.9 18:28:11 10° WNW 18:33:11 38° N 18:36:14 22° ENE
Meteor 1-27 4.2 18:31:46 10° NNW 18:37:36 75° ENE 18:43:26 10° SSE
Cosmos 1743 Rocket 3.5 18:34:40 10° S 18:39:09 84° E 18:43:40 10° NNE
Cosmos 2278 Rocket 2.6 18:35:28 10° NW 18:41:07 67° WSW 18:46:44 10° SSE
METEOR-M 4.0 18:36:43 10° SSE 18:42:03 74° ENE 18:47:26 10° NNW
Tsikada Rocket 4.3 18:36:13 10° SSW 18:42:36 72° WNW 18:49:03 10° N
USA 238 DEB 4.2 18:35:58 10° W 18:42:50 53° NNW 18:47:28 21° NE
USA 238 4.2 18:36:04 10° W 18:42:56 53° NNW 18:47:34 21° NE
Cosmos 2219 Rocket 2.4 18:37:39 10° S 18:43:03 48° ESE 18:46:00 25° NE
Cosmos 1515 Rocket 4.4 18:39:22 10° NNW 18:43:46 55° W 18:48:07 10° S
Cosmos 2322 Rocket 3.4 18:38:44 10° WSW 18:44:00 38° NW 18:48:50 12° NNE
SKYMED 2 3.5 18:43:02 13° NNE 18:46:57 66° ESE 18:51:16 10° S
Cosmos 1455 3.4 18:43:31 10° N 18:45:39 26° NNE 18:45:39 26° NNE
Cosmos 1340 Rocket 4.3 18:43:39 10° SSE 18:45:23 21° SE 18:45:23 21° SE
Cosmos 2151 3.0 18:46:09 10° S 18:50:15 54° E 18:52:26 26° NNE
Cosmos 540 Rocket 3.9 18:46:32 10° S 18:51:19 39° ESE 18:52:41 33° ENE
Cosmos 1943 Rocket 3.4 18:48:03 10° NNW 18:52:22 22° NNE 18:53:15 22° NE
Cosmos 2084 Rocket 3.9 18:49:25 10° NW 18:52:57 35° NNE 18:53:17 34° NNE
Cosmos 1151 Rocket 3.5 18:48:57 10° NNW 18:53:11 61° W 18:57:23 10° S
Cosmos 332 Rocket 3.7 18:48:42 10° SSW 18:53:30 69° ESE 18:56:12 26° NE
Thor Agena Rocket 3.8 18:49:51 10° NNE 18:55:08 71° WNW 19:00:20 10° SSW
SL-14 R/B 3.2 18:51:52 10° S 18:55:44 59° E 18:57:03 37° NE
ATLAS 3B R/B 3.4 18:48:48 10° W 18:55:49 46° N 18:59:37 25° NE
USA 215 4.5 18:50:47 10° SSE 18:56:53 40° SW 19:03:01 10° WNW
Cosmos 1674 3.6 18:53:24 10° SSW 18:57:07 48° WNW 19:00:54 10° N
DMSP B5D1-3 4.4 18:55:11 11° NNE 19:00:02 64° ESE 19:05:05 10° S
Timation 1 Rocket 4.5 18:55:23 10° NW 19:01:26 78° WSW 19:07:27 10° SSE
HJ-1C 4.3 19:05:27 36° N 19:05:27 36° N 19:07:41 10° N
Cosmos 1300 3.8 19:02:10 10° NNW 19:05:52 45° W 19:09:32 10° SSW
Cosmos 1500 Rocket 3.6 19:01:47 10° SSW 19:06:07 76° WNW 19:10:23 11° N
Spot 1 4.3 19:05:30 45° E 19:06:13 49° ENE 19:10:32 10° N
CZ-4C R/B 3.2 19:01:17 10° WNW 19:07:12 44° N 19:09:59 30° NE
Cosmos 1726 3.5 19:04:00 10° NNW 19:07:35 41° W 19:11:08 10° SSW
NOSS 3-2 (A) 4.0 19:02:37 10° WSW 19:08:58 57° NNW 19:12:52 27° NE
NOAA 12 4.4 19:04:01 10° S 19:09:15 69° WSW 19:14:33 10° NNW
COSMOS 2428 2.8 19:04:40 10° SW 19:10:25 80° NW 19:13:57 24° NNE
Cosmos 2369 Rocket 2.8 19:07:19 10° NNW 19:12:34 36° NE 19:13:01 35° NE
NOSS 3-2 (C) 4.0 19:06:34 10° WSW 19:12:56 61° NNW 19:16:42 28° NE
ALOS 2.1 19:08:38 10° SSE 19:13:17 74° ENE 19:17:58 10° NNW
Cosmos 2237 Rocket 2.3 19:08:19 10° S 19:13:44 51° ESE 19:14:53 44° ENE
Cosmos 44 4.0 19:10:45 10° S 19:15:09 37° SE 19:15:09 37° SE
Blok-2BL 4.3 19:12:19 10° NW 19:14:59 38° NNW 19:14:59 38° NNW
Lacrosse 5 rocket 3.2 19:13:48 10° W 19:16:54 25° SW 19:19:24 14° S
Cosmos 1867 4.1 19:11:52 10° NW 19:17:05 41° NNE 19:17:54 39° NE
SL-16 R/B 3.6 19:13:51 10° SSE 19:16:19 22° SE 19:16:19 22° SE
Spot 2 Rocket 3.3 19:13:46 10° SSE 19:18:49 79° ENE 19:23:53 10° NNW
Cosmos 2297 4.0 19:14:31 10° NW 19:20:11 68° WSW 19:25:51 10° SSE
COSMOS 2455 4.1 19:18:01 10° WNW 19:23:21 31° NNW 19:25:57 23° NNE
Cosmos 371 Rocket 3.2 19:19:04 10° SSW 19:23:53 89° E 19:25:21 46° NNE
Cosmos 841 Rocket 3.8 19:19:22 10° SW 19:24:38 68° WNW 19:27:43 25° NNE
FREGAT/IRIS 3.8 19:25:10 41° SW 19:25:34 44° W 19:28:33 10° NNW
Meteor 1-28 Rocket 3.5 19:29:52 56° NNW 19:30:21 64° WNW 19:34:03 10° SSW
NOSS 0 Rocket 3.8 19:24:42 10° SSW 19:30:54 71° ESE 19:32:50 45° NE
Lacrosse 4 Rocket 1.6 19:27:37 10° NW 19:31:05 60° NNW 19:31:05 60° NNW
Envisat 4.3 19:35:31 26° NNE 19:35:31 26° NNE 19:38:02 10° N
Resurs 01 Rocket 1.7 19:31:55 21° S 19:34:51 78° WSW 19:39:21 10° NNW
COSMO-SKYMED 1 3.4 19:31:35 15° N 19:34:57 50° WNW 19:39:09 10° SW
Cosmos 1707 Rocket 3.9 19:34:49 10° NNW 19:39:07 62° W 19:43:23 10° S
Meteor 1-11 4.3 19:34:56 10° SSW 19:40:39 81° WNW 19:46:29 10° NNE
CENTAUR R/B 2.7 19:36:31 10° WSW 19:43:00 81° NW 19:45:38 43° NE
Cosmos 44 Rocket 3.3 19:38:17 10° SW 19:43:12 73° SSE 19:43:12 73° SSE
Lacrosse 5 1.7 19:38:42 10° W 19:43:48 78° N 19:43:59 76° NNE
SL-16 R/B 4.0 19:40:13 10° W 19:44:47 24° NNW 19:47:32 17° NNE
Resurs 1-3 3.7 19:46:39 67° SW 19:47:02 72° WSW 19:51:28 10° NNW
Cosmos 2360 Rocket 3.7 19:55:39 10° W 20:00:35 30° NNW 20:03:01 22° N
Cosmos 1980 3.7 19:55:24 10° SW 20:01:06 82° NW 20:01:38 73° N
Cosmos 2058 3.9 19:57:18 10° SW 20:01:14 44° WNW 20:01:14 44° WNW
Cosmos 1980 Rocket 4.1 19:59:14 10° NW 20:02:56 18° N 20:04:04 17° N
Helios 1A 4.5 20:08:12 32° NW 20:08:12 32° NW 20:10:36 10° NNW
Cosmos 2333 Rocket 2.5 20:08:13 10° SW 20:13:49 64° NW 20:14:23 60° NNW
ATLAS 5 CENTAUR R/B 2.7 20:13:19 10° NW 20:17:48 50° NNW 20:17:48 50° NNW
Nadezhda 4 Rocket 4.1 20:15:49 10° SSW 20:22:05 74° WNW 20:28:27 10° N
Cosmos 2219 Rocket 3.0 20:21:39 10° WSW 20:27:05 47° NW 20:27:46 44° NNW
Cosmos 2322 Rocket 4.1 20:25:43 10° WNW 20:29:42 19° NNW 20:30:40 18° N
Cosmos 540 Rocket 4.4 20:27:56 10° SW 20:32:34 45° WNW 20:32:34 45° WNW
USA 238 DEB 4.3 20:28:14 10° WNW 20:34:54 47° N 20:34:54 47° N
USA 238 4.3 20:28:20 10° WNW 20:35:01 47° N 20:35:01 47° N
Cosmos 1943 Rocket 3.5 20:31:49 10° NNW 20:34:46 31° NNW 20:34:46 31° NNW
ATLAS 3B R/B 3.3 20:40:49 10° WNW 20:46:53 49° N 20:46:53 49° N
COSMOS 2428 4.3 20:50:41 10° W 20:55:33 28° NNW 20:56:00 28° NNW
CZ-4C R/B 3.2 20:50:13 10° NW 20:55:10 52° NNW 20:55:10 52° NNW
Cosmos 2369 Rocket 3.4 20:51:23 10° NW 20:54:50 38° NW 20:54:50 38° NW
Cosmos 2237 Rocket 3.4 20:52:32 10° WSW 20:56:46 39° WNW 20:56:46 39° WNW
NOSS 3-2 (A) 4.5 20:54:34 10° WNW 21:00:16 45° NNW 21:00:16 45° NNW
SL-16 R/B 4.2 20:56:41 10° SW 20:58:16 19° SW 20:58:16 19° SW
Lacrosse 5 4.3 21:21:52 10° WNW 21:23:12 18° WNW 21:23:12 18° WNW
CENTAUR R/B 3.8 21:27:58 10° W 21:32:50 41° NW 21:32:50 41° NW
